Home > Weather > Rostock > Past weeks

Flag for Germany Past Weather in Rostock, Mecklenburg-Western Pomerania, Germany — Yesterday and Last 2 Weeks

Now
72 °F

Passing clouds.


Feels Like: 75 °F
Forecast: 62 / 83 °F
Wind: 9 mph from East

Location: Laage

Current Time: Jul 24, 2016 at 10:32:41 PM

Latest Report: Jul 24, 2016 at 9:20 PM


Visibility: N/A

Pressure: 30.07 "Hg

Humidity: 69%

Dew Point: 61 °F

Location of RostockLocation

Past Weather in Rostock — Graph

°F

Rostock Temperature Yesterday

Maximum temperature yesterday: 81 °F (at 2:20 PM)
Minimum temperature yesterday: 57 °F (at 4:20 AM)
Average temperature yesterday: 70 °F

High & Low Weather Summary for the Past Weeks

 TemperatureHumidityPressure
High84 °F (Jul 21, 5:20 PM)100% (Jul 14, 3:20 AM)30.18 "Hg (Jul 14, 3:20 AM)
Low52 °F (Jul 14, 3:20 AM)30% (Jul 22, 1:20 PM)29.65 "Hg (Jul 11, 2:20 AM)
Average66 °F72%30.00 "Hg
* Reported Jul 9 9:20 PM — Jul 24 9:20 PM, Rostock, Weather by CustomWeather, © 2016

Note: Actual official high and low records may vary slightly from our data, if they occured in-between our weather recording intervals... More about our weather records

Advertising

Rostock Weather History for the Previous 24 Hours

Scroll right to see more
 ConditionsComfort  
Time TempWeatherWind HumidityBarometerVisibility
9:20 PM
Sun, Jul 24
72 °FPassing clouds.9 mph69%30.07 "HgN/A
8:20 PM75 °FPassing clouds.12 mph65%30.07 "HgN/A
7:20 PM79 °FScattered clouds.12 mph54%30.07 "HgN/A
6:20 PM81 °FPassing clouds.5 mph48%30.07 "HgN/A
5:20 PM81 °FPassing clouds.8 mph45%30.07 "HgN/A
4:20 PM81 °FPassing clouds.7 mph51%30.07 "HgN/A
3:20 PM81 °FPassing clouds.9 mph48%30.09 "HgN/A
2:20 PM79 °FPassing clouds.7 mph51%30.09 "HgN/A
1:20 PM77 °FScattered clouds.6 mph54%30.09 "HgN/A
12:20 PM75 °FPartly sunny.7 mph61%30.12 "HgN/A
11:20 AM72 °FBroken clouds.6 mph65%30.12 "HgN/A
10:20 AM72 °FPartly sunny.7 mph65%30.12 "HgN/A
9:20 AM72 °FScattered clouds.7 mph69%30.12 "HgN/A
8:20 AM68 °FScattered clouds.6 mph78%30.12 "HgN/A
7:20 AM64 °FPartly sunny.6 mph88%30.12 "Hg6 mi
6:20 AM63 °FBroken clouds.3 mph88%30.12 "Hg5 mi
5:20 AM63 °FPartly cloudy.5 mph94%30.12 "Hg4 mi
4:20 AM63 °FPartly cloudy.3 mph88%30.12 "Hg5 mi
3:20 AM64 °FPartly cloudy.7 mph88%30.12 "HgN/A
2:20 AM63 °FPassing clouds.6 mph94%30.12 "HgN/A
1:20 AM64 °FPassing clouds.6 mph88%30.12 "HgN/A
12:20 AM64 °FPassing clouds.7 mph88%30.12 "HgN/A
11:20 PM
Sat, Jul 23
66 °FPartly cloudy.6 mph78%30.12 "HgN/A
10:20 PM68 °FBroken clouds.8 mph73%30.09 "HgN/A
Weather by CustomWeather, © 2016

See weather overviewHow to use our weather pages